Orbital Elements at Epoch 2459000.5 (2020-May-31.0) TDB
Reference: JPL 21 (heliocentric ecliptic J2000)
Element | Value | Uncertainty (1-sigma) | Units |
e | .1173572077752993 | 4.0556e-08 | |
a | 2.769594234094885 | 1.754e-08 | au |
q | 2.444562388110941 | 1.1163e-07 | au |
i | 13.04158021341537 | 4.4671e-06 | deg |
node | 112.1181686181266 | 2.0241e-05 | deg |
peri | 271.477443895377 | 2.8131e-05 | deg |
M | 261.1322315344714 | 2.1139e-05 | deg |
tp | 2459462.854275002764 (2021-Sep-05.35427500) | 0.00010036 | TDB |
period | 1683.536925980369 4.61 | 1.5993e-05 4.379e-08 | d yr |
n | .2138355235602344 | 2.0314e-09 | deg/d |
Q | 3.094626080078829 | 1.9599e-08 | au |
|
| | Orbit Determination Parameters
Additional Information
|